FENGYUN 1C DEB, 33639

Orbit data source: Space-Track

FENGYUN 1C DEB, 33639 is space debris in SSO originally from a launch on Mon, 10 May 1999 UTC launched from the Taiyaun Space Center, China (TSC). Fengyun 1C debris stems from the Chinese weather satellite Fengyun-1C, which was intentionally destroyed by a Chinese anti-satellite missile in 2007. This event dramatically increased the amount of space debris, with thousands of trackable fragments posing hazards to satellites and human spaceflight. The Fengyun 1C debris cloud has become a focal point in discussions about space sustainability and the need for international regulations to prevent the creation of new debris.

Loading next visibility...
Identifier
33639, 1999-025DDY
Orbit
SSO
Country
Flag of CNCN / PRC
Related business
Manufacturer
Unknown
Mission
Spacecraft
Bus & Motor
Unknown
Mass
Unknown
Launch date (UTC)
1999-05-10 (27 years ago)
Launch vehicle
Unknown
Launch site
Taiyaun Space Center, China (TSC)
Object type
Payload
Rocket body
Debris
Shape & HBR
Unknown shape, 0.1 m
Radar Cross Section
Small (<0.1 m²)

Expand to show TLE details & history
Last TLE update: 4 weeks ago

TLE from 4 weeks ago
0 FENGYUN 1C DEB
1 33639U 99025DDY 26137.06763088  .00004294  00000-0  12861-2 0  9995
2 33639  98.7095 236.0743 0049949 184.2614 175.8156 14.42629405628208
Epoch: 2026-05-17T01:37Z
TLE epoch observation values (Epoch: 2026-05-17T01:37:23.308Z)
Latitude
-0.00004°
Longitude
-23.04837°
Altitude
788.286 km
Speed
7.441 km/s
True Right ascension
15h 44m 17s
True Declination
0° 00' 00"
Sunlit
Object was in full shadow at epoch
Visualization orbit readout
Latitude
Unknown
Longitude
Unknown
Altitude
Unknown
Speed
Unknown
Apparent Right ascension
Unknown
Apparent Declination
Unknown
Sunlit
N/A
Visualization observer readout
Local Sidereal Time
01:48:15
Azimuth
Unknown
Elevation
Unknown
Doppler factor
Unknown
Orbital elements
Apogee altitude
782.542 km
Perigee altitude
711.363 km
Semi-major axis
7,125.089 km
Eccentricity
0.00499
Inclination
98.7095°
RAAN
236.0743°
Arg. of periapsis
184.2614°
True anomaly
175.85711°
Mean anomaly
175.8156°
Eccentric anomaly
175.83638°
Mean motion
3.60876 °/min
Orbital period
99.76 mins
BSTAR
0.0012861
Loading maneuver chart data...
Computing Atmospheric mass density...
Loading historical data...
Loading historical data...
Loading historical data...
Loading historical data...
Loading historical data...
Loading historical data...
Loading historical data...

Documentation

Showing up to 5 results
|